Volver al catálogo

ONEWEB-0589

ActivoComunicacionesPO
NORAD 54655·PAYLOAD·🇬🇧 United Kingdom

Lanzado Dec 8, 2022 desde Cape Canaveral Space Force Station

Loading…

Próximos Pases (próximas 24 horas)

TLE

ActualizadoSource: CelesTrak SupGP

Época: Sep 14, 2026, 18:04 UTC

1 54655C 22166P   26257.75326806  .00003066  00000+0  74333-2 0  2574
2 54655  87.9277 226.1483 0002697  98.2599 297.9461 13.21824123    15

Sigue ONEWEB-0589 en tiempo real con AllMySat

Download on the App Store